Location: Düngen
(52.0952°N, 10.0219°E)
Time: 19:10:54
(UTC+00:00)

NOSS 3-2 (A) - Pass Details

Date: 11 March 2026
Orbit: 669 x 1534 km, 63.4° (Epoch: 2 January)

Event Time Altitude Azimuth Distance (km) Brightness Sun altitude
Rises 19:36:06 0° 243° (WSW) 3,159 6.8 -21.6°
Reaches altitude 10° 19:38:20 10° 248° (WSW) 2,313 6.1 -22.0°
Maximum altitude 19:43:32 55° 327° (NNW) 1,044 3.9 -22.7°
Drops below altitude 10° 19:49:54 10° 45° (NE) 2,828 5.7 -23.6°
Enters shadow 19:52:17 - 49° (NE) 3,701 6.3 -23.9°
